#timestamp,LO_Frequency,Hit,StdDev 
1641837615.1,286047002.5,N
1641837616.0,286047002.5,N
1641837635.8,286046999.8,N
1641837655.6,286047000.5,N
1641837675.5,286046998.8,N
1641837695.3,286046999.3,N
1641837715.2,286046998.5,N
1641837735.9,286046998.7,N
1641837755.7,286046999.0,N
1641837775.6,286046998.1,N
1641837795.4,286047001.0,N
1641837815.2,286047000.7,N
1641837835.1,286047002.4,N
1641837836.0,286047002.4,N
1641837855.8,286047000.3,N
1641837875.7,286046999.9,N
1641837895.5,286047002.6,N
1641837915.3,286047000.4,N
1641837935.2,286047000.9,N
1641837955.0,286047000.7,N
1641837955.9,286047000.7,N
1641837975.7,286046996.5,N
1641837995.6,286046999.0,N
1641838015.4,286046996.8,N
1641838035.3,286046997.3,N
1641838055.1,286046998.0,N
1641838056.0,286046998.0,N
1641838075.8,286046996.9,N
1641838095.7,286046997.1,N
1641838115.5,286046999.3,N
1641838135.3,286047000.7,N
1641838155.2,286046998.9,N
1641838175.0,286046999.1,N
1641838175.9,286046999.1,N
1641838195.8,286047000.7,N
1641838215.6,286047000.5,N
1641838235.4,286047002.3,N
1641838255.3,286047001.7,N
1641838275.1,286047002.8,N
1641838295.8,286046999.8,N
1641838315.7,286047002.0,N
1641838335.5,286047002.2,N
1641838355.4,286047003.8,N
1641838375.2,286047002.1,N
1641838395.0,286047002.5,N
1641838395.9,286047002.5,N
1641838415.8,286047003.9,N
1641838435.6,286047002.5,N
1641838455.4,286047002.2,N
1641838475.3,286047001.4,N
1641838495.1,286047004.1,N
1641838515.9,286047003.6,N
1641838535.7,286047003.4,N
1641838555.5,286047003.0,N
1641838575.4,286047005.9,N
1641838595.2,286047003.3,N
1641838615.1,286047005.4,N
1641838616.0,286047005.4,N
1641838635.8,286047003.0,N
1641838655.6,286047004.8,N
1641838675.5,286047005.6,Y
1641838695.3,286047001.9,P
1641838715.1,286047002.5,P
1641838735.9,286047002.6,P
1641838755.7,286047002.5,Y
1641838775.6,286047002.6,P
1641838795.4,286047000.8,P
1641838815.2,286046999.6,N
1641838835.1,286046996.9,N
1641838836.0,286046996.9,N
1641838855.8,286046997.7,N
1641838875.7,286046994.9,N
1641838895.5,286046997.2,N
1641838915.3,286046996.9,N
1641838935.2,286046999.6,N
1641838955.9,286046999.6,N
1641838975.7,286046999.5,N
1641838995.6,286046998.9,N
1641839015.4,286046999.1,N
1641839035.2,286046996.9,N
1641839055.1,286046999.6,N
1641839056.0,286046999.6,N
1641839075.8,286046996.9,N
1641839095.7,286046996.9,N
1641839115.5,286046997.5,N
1641839135.3,286046997.9,N
1641839155.2,286046995.8,N
1641839175.0,286046996.3,N
1641839175.9,286046996.3,N
1641839195.8,286046995.1,N
1641839215.6,286046997.6,N
1641839235.4,286046995.6,N
1641839255.3,286046999.1,N
1641839275.1,286046996.7,N
1641839295.8,286046994.9,N
1641839315.7,286046997.8,N
1641839335.5,286046995.3,N
1641839355.4,286046995.4,Y
1641839375.2,286046998.7,P
1641839395.0,286046999.3,N
1641839395.9,286046999.3,N
1641839415.8,286047000.8,N
1641839435.6,286046998.2,N
1641839455.4,286046998.8,N
1641839475.3,286046998.5,N
1641839495.1,286046998.2,N
1641839515.9,286046998.5,N
1641839535.7,286046998.4,N
1641839555.5,286046998.9,N
1641839575.4,286046998.3,N
1641839595.2,286046999.2,N
1641839615.0,286046999.5,N
1641839615.9,286046999.5,N
1641839635.8,286046995.2,Y
1641839655.6,286046997.2,P
1641839675.5,286046999.5,N
1641839695.3,286046999.3,N
1641839715.1,286046998.7,N
1641839735.9,286046999.0,N
1641839755.7,286047001.2,N
1641839775.5,286047001.0,N
1641839795.4,286047000.0,N
1641839815.2,286047000.7,N
1641839835.1,286047000.2,N
1641839836.0,286047000.2,N
1641839855.8,286047000.9,N
1641839875.6,286046999.7,N
1641839895.5,286046999.9,N
1641839915.3,286046999.8,N
1641839935.1,286047000.4,N
1641839955.9,286047000.6,N
1641839975.7,286047000.2,N
1641839995.6,286047001.9,N
1641840015.4,286047000.1,N
1641840035.2,286047000.6,N
1641840055.1,286047000.2,N
1641840056.0,286047000.2,N
1641840075.8,286047000.0,N
1641840095.6,286047000.3,N
1641840115.5,286046999.9,N
1641840135.3,286047002.4,N
1641840155.2,286046999.7,N
1641840175.0,286047000.2,N
1641840175.9,286047000.2,N
1641840195.7,286047002.8,Y
1641840245.6,286047000.0,E
1641840255.5,286047002.4,N
1641840275.4,286047002.4,P
1641840295.2,286046999.9,P
1641840315.0,286047001.9,N
1641840315.9,286047001.9,N
1641840335.8,286047004.4,Y
1641840355.6,286047001.0,P
1641840375.5,286047000.7,N
1641840395.3,286046999.0,N
1641840415.1,286046999.1,N
1641840435.9,286046997.1,N
1641840455.7,286046997.1,N
1641840475.5,286046998.8,N
1641840495.4,286046999.5,N
1641840515.2,286046998.5,N
1641840535.1,286046996.5,N
1641840536.0,286046996.5,N
1641840555.8,286046998.8,N
1641840575.6,286046998.3,N
1641840595.5,286046998.3,N
1641840615.3,286047000.9,N
1641840635.1,286047005.8,Y
1641840655.9,286047012.6,P
1641840675.7,286047014.9,N
1641840695.6,286047010.1,N
1641840715.4,286047006.6,N
1641840735.2,286047004.5,N
1641840755.1,286047004.9,N
1641840756.0,286047004.9,N
1641840775.8,286047005.4,N
1641840795.7,286047004.1,N
1641840815.5,286047004.3,N
1641840835.3,286047003.7,N
1641840855.2,286047003.3,N
1641840875.9,286047003.2,N
1641840895.7,286047004.3,N
1641840915.6,286047004.4,N
1641840935.4,286047001.3,N
1641840955.2,286047001.6,N
1641840975.1,286047003.9,N
1641840976.0,286047003.9,N
1641840995.8,286047004.2,N
1641841015.7,286047001.3,N
1641841035.5,286047002.1,N
1641841055.3,286046998.4,N
1641841075.2,286046996.7,N
1641841095.0,286046998.0,N
1641841095.9,286046998.0,N
1641841115.8,286046993.6,N
1641841135.6,286046995.3,N
1641841155.4,286046997.2,N
1641841175.3,286046998.8,N
1641841195.1,286046999.5,N
